Flag for Syria Weather past 2 weeks in Aleppo, Syria

Now
74 °F

Thunderstorms. Passing clouds.


Feels Like: 75 °F
Forecast: 67 / 88 °F
Wind: No wind

Location: Iskenderun

Current Time: Sep 16, 2014 at 5:59:43 AM

Latest Report: Sep 16, 2014 at 5:00 AM


Visibility: 4 mi

Pressure: 29.79 "Hg

Humidity: 81%

Dew point: 68 °F

Location of AleppoLocation

Historic Weather in Aleppo — Graph

°F

Aleppo temperature yesterday

Maximum temperature yesterday: 86 °F (at 3:00 PM)
Minimum temperature yesterday: 66 °F (at 9:00 PM)
Average temperature yesterday: 79 °F

Past Weeks' High & Low Weather Summary

 TemperatureHumidityPressure
High89 °F (Sep 1, 1:00 PM)89% (Sep 14, 4:00 AM)29.92 "Hg (Sep 14, 4:00 AM)
Low66 °F (Sep 15, 9:00 PM)41% (Sep 15, 8:00 PM)29.66 "Hg (Sep 6, 4:00 AM)
Average82 °F66%29.80 "Hg
* Reported Sep 1 4:00 AM — Sep 16 4:00 AM, Aleppo, Weather by CustomWeather, © 2014

Note: Actual official high and low records may vary slightly from our data, if they occured in-between our weather recording intervals... More about our weather records

Advertising

Aleppo weather history for previous 24 hours

 ConditionsComfort  
Time TempWeatherWind HumidityBarometerVisibility
4:00 AM
Sep 16
75 °FThundershowers. Overcast.1 mph78%29.80 "Hg6 mi
3:00 AM76 °FThundershowers. Overcast.No wind77%29.80 "Hg6 mi
2:00 AM74 °FThunderstorms. Overcast.No wind76%29.80 "Hg6 mi
1:00 AM74 °FPassing clouds.1 mph69%29.80 "Hg9 mi
12:00 AM73 °FThunderstorms. Overcast.2 mph74%29.80 "Hg9 mi
11:00 PM
Sep 15
73 °FThundershowers. Overcast.1 mph71%29.83 "Hg6 mi
10:00 PM70 °FThundershowers. Overcast.2 mph86%29.83 "Hg6 mi
9:00 PM66 °FThundershowers. Overcast.3 mph89%29.85 "Hg6 mi
8:00 PM82 °FThunderstorms. Overcast.5 mph41%29.82 "Hg6 mi
7:00 PM82 °FPassing clouds.9 mph68%29.78 "Hg9 mi
6:00 PM84 °FPassing clouds.8 mph65%29.78 "Hg9 mi
5:00 PM85 °FPassing clouds.13 mph65%29.77 "Hg9 mi
4:00 PM85 °FScattered clouds.12 mph63%29.78 "Hg9 mi
3:00 PM86 °FPassing clouds.7 mph61%29.78 "Hg9 mi
2:00 PM85 °FScattered clouds.3 mph60%29.80 "Hg9 mi
1:00 PM85 °FPassing clouds.5 mph61%29.81 "Hg9 mi
12:00 PM84 °FPassing clouds.3 mph64%29.81 "Hg9 mi
11:00 AM83 °FPassing clouds.2 mph64%29.81 "Hg9 mi
10:00 AM82 °FThunderstorms. Passing clouds.3 mph70%29.82 "Hg9 mi
9:00 AM81 °FThunderstorms. Overcast.3 mph71%29.81 "Hg6 mi
8:00 AM77 °FThunderstorms. Partly sunny.No wind77%29.80 "Hg9 mi
7:00 AM77 °FThunderstorms. Partly sunny.No wind77%29.80 "Hg9 mi
6:00 AM76 °FThunderstorms. Passing clouds.No wind78%29.79 "Hg9 mi
5:00 AM75 °FThunderstorms. Passing clouds.No wind81%29.79 "Hg12 mi
Weather by CustomWeather, © 2014

See weather overviewHow to use our weather pages